Wind_Gust
16 14 15 16 17 15 17 16 15 15 15 14 15 15 17 16 18 15 15 15 15 16 16 15 15 14 15 14 13 13 14 13 13 13 13 12 12 11 12 11 9 8
17 15 15 16 17 16 16 16 16 16 16 15 15 15 16 17 17 16 16 16 16 16 16 15 14 14 14 14 13 12 13 12 12 12 11 11 11 11 11 9 8 7
17 17 17 16 16 16 16 16 16 16 16 16 14 16 17 18 18 17 17 16 16 16 15 15 14 14 13 14 13 12 13 12 12 11 10 11 10 10 9 8 9 8
21 20 19 18 18 17 18 17 17 17 16 17 17 17 18 18 19 19 17 16 17 17 16 15 15 15 14 15 14 14 13 12 12 11 11 10 10 10 9 8 8 9
18 19 19 18 18 18 18 19 19 19 18 18 17 18 19 20 20 20 20 19 18 18 17 17 16 15 15 15 14 15 14 15 13 11 11 11 10 9 9 8 9 8
18 20 20 19 18 18 20 20 21 20 20 18 19 20 19 20 21 21 21 20 19 19 19 18 17 16 16 15 14 13 14 14 14 12 13 11 11 9 10 8 8 8
19 19 18 18 17 18 19 19 19 20 21 20 20 20 21 21 21 22 22 21 21 21 20 19 18 17 15 15 14 14 14 13 14 13 13 12 11 12 10 8 9 9
20 19 19 19 17 18 18 19 19 20 19 20 20 22 22 23 23 22 21 22 21 21 20 20 19 17 16 14 15 15 14 13 13 13 12 12 10 10 10 10 8 9
20 22 21 19 20 19 19 19 18 17 18 20 21 21 23 24 24 23 23 22 22 21 21 20 19 18 16 15 15 15 15 14 12 12 11 11 10 9 9 9 9 9
23 22 22 22 20 20 19 18 19 18 19 20 21 20 23 23 24 24 24 23 23 22 21 20 20 18 18 17 17 16 15 15 14 12 12 11 9 8 10 9 9 10
21 21 23 24 22 19 19 19 19 19 18 20 20 21 21 22 24 24 25 26 25 24 23 22 21 21 20 19 17 16 16 15 14 13 11 10 9 8 5 9 9 10
20 22 22 23 24 23 20 20 20 20 19 19 20 21 21 22 23 22 23 25 25 25 24 24 23 22 21 20 19 18 16 14 13 12 12 10 10 10 9 9 9 10
18 19 20 20 21 21 21 21 21 21 21 21 21 22 23 23 23 24 22 24 25 24 25 24 23 22 21 20 19 18 17 15 14 12 11 10 9 9 8 8 9 10
16 18 19 21 22 21 21 21 22 22 21 21 20 22 23 24 25 26 25 25 25 24 23 22 21 21 20 20 19 18 16 15 14 11 10 11 9 9 9 8 8 9
16 15 15 19 22 23 22 22 22 22 22 21 21 22 23 25 25 26 26 26 25 24 23 21 21 20 20 20 19 17 16 15 13 12 11 11 10 10 8 8 8 9
15 14 16 16 17 19 21 22 22 21 21 22 22 23 22 23 23 24 25 26 26 25 23 21 21 18 12 9 6 16 15 14 13 13 12 10 9 8 9 8 9 10
15 15 15 16 16 17 18 19 20 20 20 21 22 22 22 22 23 25 25 28 29 28 25 22 20 17 16 12 10 5 11 13 12 12 11 10 10 9 9 9 10 11
17 16 16 16 16 17 17 17 18 20 20 19 20 20 21 21 23 25 26 25 25 27 24 22 20 16 17 15 12 7 3 10 10 10 10 10 10 9 9 10 11 12
17 17 17 17 16 16 15 16 17 19 19 18 19 19 19 21 23 23 22 23 23 24 22 21 21 17 16 15 12 10 6 6 12 10 10 10 9 10 10 11 11 12
18 18 18 17 17 16 16 17 16 19 18 18 18 19 20 21 22 22 22 23 24 23 23 22 23 17 17 16 14 11 9 8 10 11 10 11 11 11 11 12 12 13
18 18 18 18 18 17 16 17 17 17 18 18 19 19 21 22 23 22 21 21 22 21 22 22 22 19 17 16 14 12 11 8 11 11 12 12 12 12 13 13 14 14
18 18 18 18 18 18 18 18 16 18 19 18 18 17 18 18 18 20 21 22 21 21 21 22 22 20 17 16 15 12 12 14 13 13 13 14 13 14 14 15 15 15
18 19 19 19 19 19 19 18 18 20 20 20 19 18 19 20 21 20 20 19 19 18 18 19 20 17 16 16 15 14 12 14 11 13 14 14 15 15 16 16 15 15
19 20 20 20 19 20 19 18 19 20 20 19 20 20 19 19 17 17 17 16 17 19 20 19 19 16 15 14 14 16 12 12 12 14 14 15 16 16 16 16 15 7
21 21 21 21 21 21 19 18 19 20 19 18 18 16 15 16 17 17 16 16 15 16 12 18 18 16 15 15 13 14 14 13 14 15 15 15 17 18 16 17 18 13
21 21 21 22 22 20 20 19 19 19 18 19 16 16 16 16 16 16 17 13 11 12 9 10 14 16 18 12 12 11 11 14 15 17 18 18 18 19 19 19 19 20
Wind_Speed
8 7 7 7 7 7 8 7 6 7 6 6 6 6 7 7 8 6 6 6 6 7 7 6 6 5 5 5 4 4 5 5 4 4 4 3 4 3 3 3 2 1
9 8 7 7 7 7 7 8 7 7 7 7 6 7 7 8 8 7 7 7 7 7 7 7 6 6 5 5 4 4 4 4 4 3 4 4 3 3 3 3 2 1
9 9 9 9 8 9 9 8 8 8 7 8 7 7 7 8 9 8 8 8 7 8 7 7 6 6 6 6 5 4 4 4 4 4 3 4 3 3 3 1 2 2
11 10 9 10 9 9 9 8 8 8 7 7 8 8 8 8 9 9 8 9 8 8 7 7 7 6 6 7 6 5 5 5 4 4 3 3 3 3 2 2 2 2
10 10 10 9 9 9 9 9 10 9 9 8 8 9 9 9 10 10 9 9 8 8 7 7 7 6 6 6 6 6 6 5 5 4 3 3 3 2 2 1 1 1
10 10 10 9 9 9 9 10 11 11 10 10 9 9 9 11 10 11 10 10 9 8 8 8 7 7 6 6 6 5 5 5 5 5 5 4 3 2 2 1 1 1
10 10 10 9 9 8 9 9 10 10 10 10 10 10 10 11 11 11 11 11 11 10 10 9 8 7 6 6 5 5 4 5 6 5 5 4 3 4 3 1 1 1
11 10 9 9 9 9 9 9 9 9 10 10 11 11 12 12 12 11 11 11 10 11 10 10 9 8 7 6 5 6 6 4 5 5 4 4 3 2 3 2 1 1
10 11 11 11 11 10 10 10 9 9 9 10 10 10 12 12 12 12 12 12 11 11 10 10 10 9 7 7 6 7 6 5 5 4 4 4 3 2 1 1 2 1
8 10 12 12 11 10 11 10 9 9 9 10 11 10 11 12 13 13 13 12 12 11 11 10 10 9 9 8 8 8 7 7 6 5 4 3 2 1 0 1 1 1
7 9 12 13 12 9 10 10 10 9 8 10 10 10 11 11 12 13 13 14 12 13 12 12 11 10 10 9 8 8 7 6 6 5 4 3 2 1 2 2 2 2
7 10 12 14 14 12 11 10 10 10 10 9 10 11 11 11 12 11 11 13 13 13 13 12 12 11 11 10 9 8 7 6 5 5 4 3 3 2 1 1 2 2
8 10 9 11 11 11 10 11 11 11 11 11 10 11 12 12 12 13 11 12 13 13 13 13 12 11 10 10 9 9 8 7 6 5 4 3 2 2 1 1 2 2
6 6 8 9 9 9 9 10 11 11 11 11 10 12 12 13 13 14 13 13 13 13 12 11 11 11 10 10 9 8 7 7 6 4 3 3 3 2 2 1 1 2
7 7 7 8 8 9 9 10 11 11 11 11 10 11 10 12 13 14 14 14 13 13 12 11 10 9 9 9 9 8 7 6 5 5 4 3 3 3 2 1 1 1
6 7 7 7 7 7 8 10 11 11 11 12 12 12 11 11 12 12 13 14 14 13 12 10 9 7 7 8 4 7 7 5 5 5 4 3 2 2 2 1 1 2
6 6 6 7 7 7 7 8 9 9 10 11 12 12 12 11 11 12 11 10 13 13 13 11 9 7 13 11 9 4 4 5 5 4 3 3 3 2 2 2 2 2
7 7 8 7 7 7 7 7 7 8 10 10 10 11 10 10 11 12 14 14 11 12 12 11 9 13 14 13 11 6 2 3 3 3 3 3 3 2 2 2 2 3
8 8 8 8 7 7 7 7 8 8 8 9 10 10 9 10 11 11 12 12 12 12 11 10 10 13 14 13 11 9 5 2 4 3 3 3 3 3 3 3 3 4
8 8 8 8 8 7 7 8 7 8 8 8 9 9 10 11 11 12 12 12 12 12 11 10 12 13 15 13 12 10 8 4 3 4 3 3 4 4 4 4 4 5
8 8 8 8 9 8 8 8 8 7 7 8 9 10 11 10 11 12 11 10 11 11 11 11 10 15 14 14 12 10 8 5 3 3 4 5 5 5 5 6 6 5
8 8 9 9 9 9 9 9 8 7 7 8 8 7 7 8 9 10 11 12 11 11 11 11 11 16 14 14 13 10 10 5 4 5 5 5 5 6 6 6 6 6
8 9 9 9 9 10 9 9 8 8 8 8 9 8 8 9 9 10 10 10 10 10 10 9 10 11 13 13 13 11 8 5 4 4 5 5 6 6 7 7 7 7
9 10 10 10 9 10 10 8 8 7 8 8 9 8 8 8 8 8 8 8 9 10 10 10 10 10 12 12 12 13 9 4 3 4 5 6 7 7 7 7 7 5
10 10 11 11 11 10 9 9 8 8 8 8 9 7 7 7 8 8 8 8 8 9 10 10 10 10 12 13 11 12 8 4 4 5 5 6 6 7 7 7 7 7
9 11 11 11 11 10 10 9 7 7 8 9 8 6 7 7 7 8 9 7 6 7 4 5 8 8 11 10 10 10 9 4 4 6 7 7 7 7 8 8 9 9
Wind_Direction
203 199 190 189 194 192 187 191 188 180 187 181 181 176 170 164 162 164 146 142 138 136 135 130 126 120 115 111 104 100 98 97 90 92 95 83 82 85 87 79 55 6
202 200 200 196 198 194 189 192 191 189 188 185 184 173 169 161 169 165 158 150 151 146 145 144 139 137 133 121 119 113 105 102 100 100 102 104 106 96 72 56 37 358
203 201 200 201 197 189 188 188 194 197 195 188 179 176 166 165 172 171 167 165 160 155 156 154 150 146 138 133 136 124 112 112 106 101 89 78 62 68 82 51 52 357
214 213 207 203 201 192 190 190 193 198 200 189 182 177 169 169 174 174 173 174 168 166 162 161 158 155 151 146 146 134 131 127 114 119 120 108 98 85 66 69 44 15
215 216 218 214 207 199 192 192 195 198 198 196 184 178 173 172 176 178 179 179 178 173 168 167 166 162 160 160 155 140 146 135 140 141 122 119 101 94 85 80 59 64
219 221 222 220 212 202 199 199 196 197 196 195 191 184 180 178 183 183 182 183 182 179 176 174 172 170 176 163 166 154 156 143 136 147 139 138 129 120 113 107 131 198
224 227 227 227 226 214 212 208 204 199 197 194 190 192 185 184 189 188 188 188 186 184 183 180 176 177 177 174 174 161 150 139 148 151 151 136 143 149 144 127 30 341
233 234 234 231 227 224 222 220 209 205 200 194 194 192 190 190 193 191 193 192 192 190 188 186 184 180 179 183 178 163 152 153 157 155 148 136 147 142 143 162 176 296
235 236 237 233 227 226 224 221 216 209 202 200 198 194 193 194 196 194 195 195 194 194 192 190 189 182 180 184 178 177 171 163 164 158 156 155 159 155 176 128 194 209
253 258 253 244 233 227 225 219 218 213 207 207 206 200 197 196 198 198 196 197 196 196 194 189 188 181 182 186 183 182 176 170 168 166 166 167 168 197 279 266 282 260
279 277 270 265 258 248 232 225 221 221 215 212 208 206 202 197 199 200 199 198 197 197 193 188 188 184 185 185 179 178 175 169 175 167 170 178 190 211 208 256 276 280
262 254 256 255 252 250 249 239 230 225 220 214 212 211 205 202 201 199 203 202 200 198 193 189 188 186 187 184 176 170 169 172 171 173 177 191 193 224 231 234 259 283
279 269 266 259 259 258 257 253 245 237 227 220 211 211 207 199 190 195 197 206 204 199 194 190 188 186 185 179 171 170 171 170 173 177 186 181 201 203 201 219 256 275
293 291 282 276 273 270 266 260 254 248 243 237 221 214 210 199 197 201 203 204 204 197 191 188 185 185 181 171 173 170 169 171 169 179 179 170 170 182 163 200 209 242
311 308 301 287 278 268 260 255 254 251 244 235 224 213 206 207 210 209 206 202 197 189 184 179 180 176 173 173 169 169 170 167 167 166 167 166 173 163 173 193 236 235
293 284 281 282 275 265 260 259 255 248 244 241 235 225 216 219 223 217 208 197 186 180 176 169 169 175 109 120 139 168 168 157 159 166 169 166 178 182 192 219 264 276
288 286 284 276 272 271 265 254 250 251 244 242 236 234 229 218 212 204 191 196 190 177 169 166 161 127 121 114 100 85 153 156 161 155 163 190 196 203 256 255 270 292
300 295 291 290 283 272 263 260 254 251 247 243 239 233 224 210 207 203 203 199 188 177 167 161 144 128 129 128 127 130 94 147 158 168 185 211 205 236 243 268 282 289
298 295 293 293 288 280 272 260 253 250 247 243 239 233 229 225 215 203 198 186 180 169 161 147 132 138 133 135 134 130 131 216 178 171 221 207 232 248 265 278 285 288
294 293 291 290 288 278 269 261 251 246 246 244 239 230 229 229 222 207 195 185 175 168 159 145 139 146 144 147 146 149 157 218 182 178 232 242 240 250 253 265 269 279
291 289 288 286 284 280 271 262 256 249 243 243 238 232 226 224 220 210 197 178 170 166 153 141 140 152 152 150 148 154 163 217 195 189 232 234 235 242 249 254 259 256
291 288 283 279 274 271 267 261 254 246 243 243 239 223 211 216 209 195 178 174 167 151 140 139 145 157 153 153 151 155 165 204 200 212 237 245 252 255 253 258 258 263
289 286 282 277 275 269 261 256 250 240 237 241 237 225 201 197 191 182 171 160 144 136 127 128 139 161 153 153 155 157 173 216 216 237 251 250 256 263 262 262 262 263
288 285 280 273 267 264 260 253 245 240 243 236 232 215 200 192 179 163 153 134 125 125 135 141 152 160 162 160 161 168 198 233 256 266 268 271 273 270 271 270 270 224
289 284 279 274 269 265 260 252 242 238 242 232 226 208 189 168 161 150 124 119 123 128 132 139 148 162 169 168 172 177 206 244 274 280 280 276 280 280 276 280 283 258
283 278 274 270 269 267 261 252 244 237 232 227 217 184 157 146 124 116 110 96 92 102 96 116 139 163 175 167 171 180 210 273 305 293 283 284 285 291 297 291 288 286